Weather in Riabyna

Ukraine / Sumi District     50°20′48″N   35°13′41″E
temp.,
°C
wind,
m/s
gust,
m/s
humid.,
%
clouds,
%
prec.,
mm/h
press.,
hPa
HPBL,
m
13 april, tue
tue1300:00+11sse228791 0.0 102223
03:00+11s2384100 0.0 102271
06:00+11se2486100 0.0 1021103
09:00+12se3781100 0.0 1022418
12:00+15se4665100 0.0 1020893
15:00+18se565097 0.0 10191718
18:00+12sw4576100 0.1 1019359
21:00+11s467940 0.2 1020493
14 april, wed
wed1400:00+10sse377785 0.0 1020375
03:00+8se35845 0.0 1020122
06:00+7se359092 0.0 101991
09:00+11sse2373100 0.0 1019372
12:00+14sse3558100 0.0 10181196
15:00+14se4457100 0.1 10161130
18:00+13ese556897 0.1 1016518
21:00+11se357984 0.2 1016120
15 april, thu
thu1500:00+11sse227599 0.0 101426
03:00+10se247892 0.3 101493
06:00+9se358369 0.0 101485
09:00+12sse346698 0.0 1014476
12:00+14sse5651100 0.0 10131718
15:00+14s6763100 0.3 10131218
18:00+10sse5885100 1.8 1013572
21:00+9se368879 2.7 1013188
16 april, fri
fri1600:00+8se379323 0.1 1012183
03:00+7s379178 0.1 1013213
06:00+7s48885 0.0 1013431
09:00+8s576911 0.0 1014824
12:00+10s6859100 0.1 10141582
15:00+10s6857100 0.2 10151479
18:00+10s486098 0.1 10161183
21:00+9s246748 0.1 1016167
17 april, sat
sat1700:00+6sw11775 0.0 101710
03:00+5ese11795 0.0 101810
06:00+4ssw11820 0.0 101910
09:00+8sw126578 0.0 1019395
12:00+12ssw3348100 0.0 10191482
15:00+12sw535199 0.1 10191263
18:00+11wsw345999 0.0 1019639
21:00+10n116499 0.0 102012